TimeEDT,TemperatureF,Dew PointF,Humidity,Sea Level PressureIn,VisibilityMPH,Wind Direction,Wind SpeedMPH,Gust SpeedMPH,PrecipitationIn,Events,Conditions,WindDirDegrees,DateUTC
12:53 AM,25.0,19.9,81,30.33,10.0,WNW,3.5,-,N/A,,Clear,290,2013-04-07 04:53:00
1:53 AM,23.0,19.0,85,30.32,10.0,Calm,Calm,-,N/A,,Clear,0,2013-04-07 05:53:00
2:53 AM,21.9,19.0,89,30.30,10.0,Calm,Calm,-,N/A,,Clear,0,2013-04-07 06:53:00
3:53 AM,23.0,19.0,85,30.30,10.0,SSE,3.5,-,N/A,,Clear,150,2013-04-07 07:53:00
4:53 AM,19.9,17.1,89,30.30,10.0,Calm,Calm,-,N/A,,Clear,0,2013-04-07 08:53:00
5:53 AM,23.0,18.0,81,30.31,10.0,Calm,Calm,-,N/A,,Clear,0,2013-04-07 09:53:00
6:53 AM,28.9,25.0,85,30.33,10.0,South,5.8,-,N/A,,Clear,170,2013-04-07 10:53:00
7:53 AM,41.0,34.0,76,30.35,10.0,South,12.7,-,N/A,,Clear,190,2013-04-07 11:53:00
8:53 AM,43.0,33.1,68,30.35,10.0,South,11.5,-,N/A,,Clear,190,2013-04-07 12:53:00
9:53 AM,45.0,30.9,58,30.34,10.0,South,16.1,-,N/A,,Clear,190,2013-04-07 13:53:00
10:53 AM,46.9,30.0,52,30.33,10.0,SSW,19.6,-,N/A,,Clear,200,2013-04-07 14:53:00
11:53 AM,46.9,28.9,50,30.31,10.0,South,17.3,25.3,N/A,,Clear,190,2013-04-07 15:53:00
12:53 PM,48.9,26.1,41,30.27,10.0,South,15.0,26.5,N/A,,Clear,180,2013-04-07 16:53:00
1:53 PM,48.0,33.1,56,30.25,10.0,South,23.0,29.9,N/A,,Clear,170,2013-04-07 17:53:00
2:53 PM,46.9,34.0,61,30.21,10.0,South,21.9,28.8,N/A,,Clear,170,2013-04-07 18:53:00
3:53 PM,46.9,35.1,63,30.19,10.0,South,20.7,27.6,N/A,,Clear,180,2013-04-07 19:53:00
4:53 PM,46.9,36.0,66,30.18,10.0,South,20.7,26.5,N/A,,Clear,180,2013-04-07 20:53:00
5:53 PM,46.0,37.9,73,30.15,10.0,South,16.1,24.2,N/A,,Clear,170,2013-04-07 21:53:00
6:53 PM,45.0,39.0,80,30.11,10.0,South,16.1,23.0,N/A,,Clear,180,2013-04-07 22:53:00
7:53 PM,45.0,39.0,80,30.10,10.0,South,17.3,25.3,N/A,,Clear,180,2013-04-07 23:53:00
8:53 PM,44.1,39.9,85,30.12,10.0,South,11.5,-,N/A,,Clear,190,2013-04-08 00:53:00
9:53 PM,45.0,41.0,86,30.11,10.0,SSW,11.5,-,N/A,,Overcast,200,2013-04-08 01:53:00
10:53 PM,46.0,42.1,86,30.09,10.0,SSW,12.7,-,N/A,,Overcast,200,2013-04-08 02:53:00
11:53 PM,46.0,43.0,89,30.08,10.0,SSW,11.5,-,N/A,,Scattered Clouds,200,2013-04-08 03:53:00